Regional Weather Roundup
Issued by NWS

Home | Current Version | Previous Version | Text Only | Print | Product List | Glossary Off
Versions: 1 2 3 4 5 6 7 8 9 10 11 12 13 14 15 16 17 18 19 20 21 22 23 24 25 26 27

000
ASUS45 KBOU 271207
RWRCO

WEATHER ROUNDUP FOR COLORADO
NATIONAL WEATHER SERVICE DENVER/BOULDER CO
600 AM MDT FRI MAY 27 2016

NOTE: "FAIR" INDICATES FEW OR NO CLOUDS BELOW 12000 FEET WITH NO
SIGNIFICANT WEATHER AND/OR OBSTRUCTIONS TO VISIBILITY.

COZ001>005-013-030-031-271300-
...NORTHWEST COLORADO...

CITY           SKY/WX    TMP DP  RH WIND       PRES   REMARKS
CRAIG          FAIR      37  34  89 W3        29.98R
HAYDEN         FAIR      37  32  81 CALM      29.98S
MEEKER         MOCLDY    42  39  89 CALM      29.98S
MOUNT WERNER   NOT AVBL
STEAMBOAT SPGS MOCLDY    38  35  89 CALM      29.99R
WALDEN         MOCLDY    36  32  87 N8        30.01R
$$

COZ006>008-011-271300-
...WEST CENTRAL VALLEYS...

CITY           SKY/WX    TMP DP  RH WIND       PRES   REMARKS
GRAND JUNCTION FAIR      47  39  74 E7        29.92R
MONTROSE       CLOUDY    45  37  73 S6        29.98R
EAGLE          MOCLDY    39  37  93 CALM      30.00S
RIFLE          FAIR      45  38  76 E6        29.95S
DELTA          MOCLDY    49  40  70 CALM      29.95R
NUCLA          FAIR      41  34  75 E7        30.01R
$$

COZ017>023-064>068-271300-
...SOUTHWEST COLORADO...

CITY           SKY/WX    TMP DP  RH WIND       PRES   REMARKS
DURANGO        FAIR      43  31  62 CALM      29.93R
CORTEZ         FAIR      35  30  82 E8        29.97R WCI  29
PAGOSA SPRINGS FAIR      36  35  96 CALM      29.97S
TELLURIDE      CLOUDY    35  35 100 CALM      30.06R FOG
WOLF CREEK PAS MOCLDY    27  25  93 NW8       30.09R WCI  18
$$

COZ009-010-012-014-032>034-037-058>063-271300-
...CENTRAL COLORADO...

CITY           SKY/WX    TMP DP  RH WIND       PRES   REMARKS
ASPEN          CLOUDY    39  36  89 CALM      29.99R
BUENA VISTA    FAIR      38  37  93 CALM      29.94R
COPPER MTN     NOT AVBL
BERTHOUD PASS  SNOW      23  12  63 N17G35    30.06R VSB<1/4 WCI   9
COTTONWOOD PAS FAIR      37  30  75 W9        29.99R
GUNNISON       FAIR      37  32  81 CALM      29.99S
KREMMLING      CLOUDY    41  32  70 CALM      29.98R
LEADVILLE      LGT SNOW  32  28  85 N9        29.99R FOG     WCI  24
MONARCH PASS   FOG       28  27  93 W10G18    30.15R VSB<1/4 WCI  19
SALIDA         CLOUDY    41  40  93 CALM      30.00R
SUNLIGHT       FOG       32  32 100 W6        30.11S VSB<1/4 WCI  26
WILKERSON PASS CLOUDY    28  27  93 NE10G26   30.03R WCI  19
$$

COZ069>075-271300-
...SAN LUIS VALLEY/SANGRE DE CRISTO MOUNTAINS...

CITY           SKY/WX    TMP DP  RH WIND       PRES   REMARKS
ALAMOSA        LGT RAIN  37  35  92 CALM      29.94R
LA VETA PASS   SNOW      30  28  93 SW7       29.96S VSB 1/2 WCI  23
SAGUACHE       CLOUDY    34  34 100 SE8       29.97R WCI  27
$$

COZ035-036-038>040-271300-
...NORTHERN COLORADO FRONT RANGE...

CITY           SKY/WX    TMP DP  RH WIND       PRES   REMARKS
DENVER INTL AP MOCLDY    48  43  82 NW22G28   29.83F
DMNS CITY PARK   N/A     49  41  73 N13       29.85S
AURORA         MOCLDY    45  45 100 NW10      29.85F
FRONT RANGE AP NOT AVBL
ERIE MUNI ARPT FAIR      50  41  71 N10       29.85S
BOULDER MUN AP NOT AVBL
CENTENNIAL     CLOUDY    46  41  82 W9        29.86R
BROOMFIELD     FAIR      50  41  71 NW10G20   29.87S
FORT COLLINS   FAIR      48  37  66 N9        29.87R
LONGMONT       CLOUDY    54  40  58 N8        29.87F
$$

COZ041-046-047-076>085-087-088-271300-
...PIKES PEAK/PALMER DIVIDE AND SOUTHERN FOOTHILLS...

CITY           SKY/WX    TMP DP  RH WIND       PRES   REMARKS
COLO. SPRINGS  LGT RAIN  43  40  89 NW17G24   29.86S
A. F. ACADEMY  LGT RAIN  41  39  93 N13G24    29.85S
SCHRIEVER AFB  NOT AVBL
ELLICOTT       LGT RAIN N/A N/A N/A N15       29.81F
FALCON         RAIN      40  37  90 NW16G23   29.85S
FORT CARSON    FAIR      42  39  91 NW2       29.84S
LIMON          RAIN      44  42  93 N15G24    29.78S FOG
MONUMENT HILL  CLOUDY    37  37 100 NW16      29.88S
TRINIDAD       LGT RAIN  44  40  85 NW9       29.85F
$$

COZ042>045-048>051-090-091-271300-
...NORTHEAST COLORADO...

CITY           SKY/WX    TMP DP  RH WIND       PRES   REMARKS
GREELEY ARPT   FAIR      50  39  66 N22       29.82F
AKRON          RAIN      48  46  93 N22       29.76S FOG
BURLINGTON     FAIR      47  44  90 CALM      29.75R
WRAY           NOT AVBL
STERLING       RAIN      50  48  93 N13       29.77R
HOLYOKE        NOT AVBL
FORT MORGAN    CLOUDY    48  46  90 N9        29.80S
$$

COZ086-089-092>099-271300-
...SOUTHEAST COLORADO...

CITY           SKY/WX    TMP DP  RH WIND       PRES   REMARKS
PUEBLO         LGT RAIN  49  43  80 NW13      29.83F
LA JUNTA       RAIN      48  44  86 W17       29.81
LAMAR          CLOUDY    51  45  79 W14G30    29.76R
SPRINGFIELD      N/A     42  39  89 NW8       29.81R
$$




USA.gov is the U.S. government's official web portal to all federal, state and local government web resources and services.